Change the Weather History Date:

Thursday, October 10, 2013

  Actual Average (PABR) Record (PABR)
Temperature  
Mean Temperature 28 °F 21 °F  
Max Temperature 33 °F 25 °F 43 °F (1925)
Min Temperature 24 °F 17 °F -11 °F (1980)
Degree Days  
Heating Degree Days 36 44  
Month to date heating degree days 415  
Since 1 July heating degree days 2955  
Cooling Degree Days 0    
Month to date cooling degree days  
Year to date cooling degree days  
Moisture  
Dew Point 24 °F    
Average Humidity 78    
Maximum Humidity 87    
Minimum Humidity 69    
Precipitation  
Precipitation 0.00 in 0.02 in 0.16 in (1951)
Month to date precipitation 0.16  
Year to date precipitation 3.93  
Snow  
Snow 0.00 in 0.30 in 4.80 in (1928)
Month to date snowfall 2.7  
Since 1 July snowfall 8.2  
Since 1 September snowfall 7.1  
Snow Depth -    
Sea Level Pressure  
Sea Level Pressure 29.52 in    
Wind  
Wind Speed 9 mph (SSW)    
Max Wind Speed 13 mph    
Max Gust Speed -    
Visibility 10 miles    
Events      
T = Trace of Precipitation, MM = Missing Value Source: NWS Daily Summary

Daily Weather History Graph

Daily Weather History Graph

Search for Another Location

Airport or City:

Trip Planner

Search our weather history database for the weather conditions in past years. The results will help you decide how hot, cold, wet, or windy it might be!

Date:

Astronomy

Oct. 10, 2013 Rise Set
Actual Time 9:36 AM AKDT 7:15 PM AKDT
Civil Twilight 8:32 AM AKDT 8:18 PM AKDT
Nautical Twilight 7:19 AM AKDT 9:31 PM AKDT
Astronomical Twilight 6:00 AM AKDT 10:49 PM AKDT
Moon 6:54 PM AKDT (10/10) 8:55 PM AKDT (10/10)
Length of Visible Light 11h 45m
Length of Day
9h 38m
Waxing Crescent, 37% of the Moon is Illuminated
Oct 10
Waxing Crescent
Oct 11
First Quarter
Oct 18
Full
Oct 26
Last Quarter
Nov 3
New

Hourly Weather History & Observations

Time (AKDT) Temp. Windchill Dew Point Humidity Pressure Visibility Wind Dir Wind Speed Gust Speed Precip Events Conditions
12:53 AM 33.1 °F 24.9 °F 28.0 °F 82% 29.45 in 10.0 mi West 10.4 mph - N/A   Overcast
1:53 AM 33.1 °F 24.9 °F 28.0 °F 82% 29.46 in 10.0 mi WNW 10.4 mph - N/A   Overcast
2:28 AM 32.0 °F 23.0 °F 28.4 °F 87% 29.46 in 10.0 mi WNW 11.5 mph - N/A   Overcast
2:51 AM 32.0 °F 22.5 °F 28.4 °F 87% 29.47 in 10.0 mi West 12.7 mph - N/A   Overcast
3:53 AM 32.0 °F 23.6 °F 28.0 °F 85% 29.48 in 10.0 mi WNW 10.4 mph - N/A   Overcast
4:51 AM 33.8 °F 25.3 °F 26.6 °F 75% 29.48 in 10.0 mi West 11.5 mph - N/A   Overcast
4:53 AM 33.1 °F 24.4 °F 26.1 °F 75% 29.48 in 10.0 mi West 11.5 mph - N/A   Overcast
5:12 AM 32.0 °F 23.6 °F 24.8 °F 75% 29.48 in 10.0 mi West 10.4 mph - N/A   Overcast
5:53 AM 32.0 °F 23.6 °F 24.1 °F 73% 29.49 in 10.0 mi WNW 10.4 mph - N/A   Overcast
6:53 AM 32.0 °F 24.8 °F 24.1 °F 73% 29.49 in 10.0 mi West 8.1 mph - N/A   Overcast
7:53 AM 32.0 °F 25.6 °F 23.0 °F 69% 29.50 in 10.0 mi West 6.9 mph - N/A   Overcast
8:53 AM 32.0 °F 24.2 °F 25.0 °F 75% 29.51 in 10.0 mi WSW 9.2 mph - N/A   Overcast
9:53 AM 32.0 °F 25.6 °F 25.0 °F 75% 29.51 in 10.0 mi SW 6.9 mph - N/A   Overcast
10:24 AM 32.0 °F 26.4 °F 24.8 °F 75% 29.51 in 10.0 mi SW 5.8 mph - N/A   Overcast
10:42 AM 30.2 °F 24.3 °F 24.8 °F 80% 29.52 in 10.0 mi SW 5.8 mph - N/A   Overcast
10:53 AM 30.9 °F 25.2 °F 24.1 °F 76% 29.52 in 10.0 mi SSW 5.8 mph - N/A   Overcast
11:53 AM 30.0 °F 22.4 °F 24.1 °F 79% 29.53 in 10.0 mi SSW 8.1 mph - N/A   Overcast
12:53 PM 28.9 °F 25.2 °F 25.0 °F 85% 29.53 in 10.0 mi South 3.5 mph - N/A   Overcast
1:48 PM 30.2 °F 22.6 °F 24.8 °F 80% 29.53 in 10.0 mi SE 8.1 mph - N/A   Overcast
1:53 PM 30.0 °F 23.2 °F 25.0 °F 82% 29.53 in 10.0 mi SE 6.9 mph - N/A   Overcast
2:53 PM 30.0 °F - 25.0 °F 82% 29.53 in 10.0 mi Calm Calm - N/A   Overcast
3:53 PM 30.0 °F 24.1 °F 25.0 °F 82% 29.53 in 10.0 mi SE 5.8 mph - N/A   Overcast
4:53 PM 30.0 °F 24.1 °F 25.0 °F 82% 29.53 in 10.0 mi SE 5.8 mph - N/A   Overcast
5:18 PM 30.2 °F 22.6 °F 24.8 °F 80% 29.53 in 10.0 mi SE 8.1 mph - N/A   Overcast
5:53 PM 30.0 °F 24.1 °F 24.1 °F 79% 29.53 in 10.0 mi SE 5.8 mph - N/A   Overcast
6:48 PM 30.2 °F 23.4 °F 24.8 °F 80% 29.54 in 10.0 mi SE 6.9 mph - N/A   Overcast
6:53 PM 30.0 °F 24.1 °F 24.1 °F 79% 29.54 in 10.0 mi ESE 5.8 mph - N/A   Overcast
7:53 PM 30.0 °F 25.2 °F 21.0 °F 69% 29.55 in 10.0 mi ESE 4.6 mph - N/A   Overcast
8:48 PM 24.8 °F 16.1 °F 17.6 °F 74% 29.54 in 10.0 mi East 8.1 mph - N/A   Scattered Clouds
8:53 PM 24.1 °F 16.0 °F 18.0 °F 77% 29.55 in 10.0 mi East 6.9 mph - N/A   Partly Cloudy
9:53 PM 24.1 °F 17.0 °F 19.0 °F 81% 29.55 in 10.0 mi ESE 5.8 mph - N/A   Mostly Cloudy
10:30 PM 26.6 °F 21.2 °F 19.4 °F 74% 29.55 in 10.0 mi SE 4.6 mph - N/A   Overcast
10:53 PM 26.1 °F 19.4 °F 19.0 °F 75% 29.55 in 10.0 mi ESE 5.8 mph - N/A   Overcast
11:53 PM 26.1 °F 18.4 °F 19.0 °F 75% 29.56 in 10.0 mi East 6.9 mph - N/A   Overcast